This demonstration page uses our WeatherBlox Daily Observations layout. Learn more.

Left ArrowRight Arrow

38.20091, -84.87328

Hourly Observations for June 27, 2022

Temp ( °F °C ) Dew Point ( °F °C ) Humidity (%) Winds ( mph kmh ) Pressure ( in mb ) Visibility ( mi km ) Precip ( " mm )
12:04 am 00:04 Mostly Cloudy with Light Rain 73 22.8 70 21.1 90 90 WNW 8 13 30.07 1018 7 11 0.00 0.00
12:53 am 00:53 Cloudy 72 22.2 69 20.6 91 91 Calm 30.08 1019 10 16 0.01 0.25
1:53 am 01:53 Partly Cloudy 71 21.7 67 19.4 87 87 NW 7 11 30.08 1019 10 16 0.00 0.00
2:53 am 02:53 Clear 69 20.6 64 17.8 84 84 WNW 7 11 30.08 1019 10 16 0.00 0.00
3:53 am 03:53 Cloudy 68 20 64 17.8 87 87 NW 3 6 30.09 1019 10 16 0.00 0.00
4:53 am 04:53 Cloudy 68 20 61 16.1 78 78 NNW 8 13 30.09 1019 10 16 0.00 0.00
5:53 am 05:53 Partly Cloudy 65 18.3 59 15 81 81 NNW 5 7 30.10 1019 10 16 0.00 0.00
6:53 am 06:53 Sunny 64 17.8 59 15 84 84 NW 5 7 30.13 1020 10 16 0.00 0.00
7:53 am 07:53 Sunny 67 19.4 59 15 76 76 NNW 5 7 30.15 1021 10 16 0.00 0.00
8:53 am 08:53 Sunny 70 21.1 59 15 68 68 N 6 9 30.17 1022 10 16 0.00 0.00
9:53 am 09:53 Sunny 72 22.2 58 14.4 61 61 NNE 7 11 30.19 1022 10 16 0.00 0.00
10:53 am 10:53 Sunny 75 23.9 55 12.8 50 50 N 9 15 30.19 1022 10 16 0.00 0.00
11:53 am 11:53 Sunny 77 25 55 12.8 47 47 ENE 6 9 30.19 1022 10 16 0.00 0.00
12:53 pm 12:53 Sunny 78 25.6 53 11.7 42 42 VRB 5 7 30.19 1023 10 16 0.00 0.00
1:53 pm 13:53 Mostly Sunny 79 26.1 53 11.7 41 41 VRB 3 6 30.18 1022 10 16 0.00 0.00
2:53 pm 14:53 Mostly Sunny 80 26.7 54 12.2 41 41 NNW 8 13 30.16 1021 10 16 0.00 0.00
3:53 pm 15:53 Sunny 80 26.7 52 11.1 38 38 NW 9 15 30.16 1021 10 16 0.00 0.00
4:53 pm 16:53 Sunny 81 27.2 52 11.1 37 37 NNW 8 13 30.14 1021 10 16 0.00 0.00
5:53 pm 17:53 Sunny 80 26.7 52 11.1 38 38 NW 8 13 30.14 1021 10 16 0.00 0.00
6:53 pm 18:53 Sunny 80 26.7 51 10.6 37 37 N 13 20 30.14 1021 10 16 0.00 0.00
7:53 pm 19:53 Sunny 78 25.6 51 10.6 39 39 NNW 8 13 30.14 1021 10 16 0.00 0.00
8:53 pm 20:53 Sunny 72 22.2 57 13.9 59 59 Calm 30.15 1021 10 16 0.00 0.00
9:53 pm 21:53 Clear 67 19.4 56 13.3 68 68 Calm 30.16 1021 10 16 0.00 0.00
10:53 pm 22:53 Clear 65 18.3 57 13.9 76 76 Calm 30.18 1022 10 16 0.00 0.00
11:53 pm 23:53 Clear 63 17.2 56 13.3 78 78 NW 3 6 30.19 1022 10 16 0.00 0.00

Powered by AerisWeather